Tracking 19485 objects as of 22-Jan-2019
HD Live streaming from Space Station
objects crossing your sky now

COSMOS 718

Track COSMOS 718 now!
10-day predictions
COSMOS 718 is classified as:


NORAD ID: 7685
Int'l Code: 1975-016H
Perigee: 1,435.9 km
Apogee: 1,496.0 km
Inclination: 74.0 °
Period: 115.1 minutes
Semi major axis: 7836 km
RCS: 0.6831 m2 (medium)
Launch date: February 28, 1975
Source: Commonwealth of Independent States (former USSR) (CIS)
Launch site: PLESETSK MISSILE AND SPACE COMPLEX (PKMTR)
aabbcc
Your satellite tracking list
Your tracking list is empty




NASA's NSSDC Master Catalog

Two Line Element Set (TLE):
1  7685U 75016H   19021.90498199 -.00000001  00000-0  94501-4 0  9992
2  7685  74.0008 226.6733 0038349 133.0752 357.3117 12.51350008  5450
Source of the keplerian elements: AFSPC